Regional Weather Roundup
Issued by NWS

Home | Current Version | Previous Version | Text Only | Print | Product List | Glossary Off
Versions: 1 2 3 4 5 6 7 8 9 10 11 12 13 14 15 16 17 18 19 20 21 22 23 24 25 26 27 28 29 30 31 32 33 34 35 36 37 38 39 40 41 42 43 44 45 46 47 48 49 50

000
ASUS45 KTFX 210304
RWRMT
MONTANA HOURLY WEATHER ROUNDUP
NATIONAL WEATHER SERVICE GREAT FALLS MT
904 PM MDT SAT SEP 20 2014

NOTE: "FAIR" INDICATES FEW OR NO CLOUDS BELOW 12000 FEET WITH NO
SIGNIFICANT WEATHER AND/OR OBSTRUCTIONS TO VISIBILITY.

* THESE STATIONS ARE NOT UNDER NWS QUALITY CONTROL. THEY DO NOT
   REPORT WEATHER SUCH AS PRECIPITATION OR FOG.

MTZ001>007-043-210400-
WEST OF THE DIVIDE
CITY           SKY/WX    TMP DP  RH WIND       PRES   REMARKS
KALISPELL      CLEAR     55  46  72 W3        30.14R
MISSOULA       CLEAR     70  41  35 NW7       30.15R
BUTTE          CLEAR     63  37  38 W3        30.28R
MULLAN PASS    CLEAR     61  36  39 SE7       30.27S
* ESSEX        N/A       55  46  72 SE2        N/A
* LINCOLN      N/A       65  42  43 NE5G10     N/A
* LOOKOUT PASS N/A       60  41  50 N/A        N/A
* POLSON       N/A       61  41  48 N/A        N/A
* RONAN APT    CLEAR     57  45  64 N/A        N/A
* SEELEY LAKE  N/A       58  37  46 NE1        N/A
* THOMP F APT  CLEAR     62  39  43 N8         N/A
$$

MTZ008-052>055-210400-
SOUTHWEST MONTANA
CITY           SKY/WX    TMP DP  RH WIND       PRES   REMARKS
BOZEMAN        CLEAR     52  41  66 NE3       30.24R
DILLON         CLEAR     57  39  51 E8        30.22R
W YELLOWSTONE  CLEAR     48  41  77 CALM      30.31R
* THREE FORKS  CLEAR     57  57 100 N/A        N/A
* BOULDER HILL N/A       55  35  47 W1         N/A
* MONIDA PASS  N/A       58  36  44 S1         N/A
* RAYNOLDS PAS N/A       55  13  19 N10        N/A
* WHITEHALL    N/A       66  38  36 E5G11      N/A
* WISE RIVER   N/A       62  27  26 SE7        N/A
$$

MTZ009>010-012-014-046-048-049-054-210400-
EAST SLOPES AND CENTRAL MONTANA
CITY           SKY/WX    TMP DP  RH WIND       PRES   REMARKS
CUT BANK       CLEAR     61  41  48 SE5       30.25R
GREAT FALLS    CLEAR     61  39  44 E12       30.24R
HELENA         CLEAR     64  41  43 SW10      30.20R
MALMSTROM AFB  CLEAR     57  41  55 NE8       30.25R
* CONRAD       CLEAR     59  46  62 NE5        N/A
* EAST GLACIER N/A       56  44  64 NE3        N/A
* MONARCH      N/A       48  41  77 E9         N/A
* PENDROY      N/A       55  44  67 E9         N/A
* ROGERS PASS  N/A       52  42  69 NW2        N/A
* SAINT MARY   N/A       60  46  60 N5G10      N/A
* SWEET GRASS  N/A       59  37  44 E9         N/A
$$

MTZ011-013-016-021-035-040-045-047-050-051-210400-
NORTH CENTRAL MONTANA
CITY           SKY/WX    TMP DP  RH WIND       PRES   REMARKS
HAVRE          CLEAR     54  41  62 E6        30.23R
LEWISTOWN      CLEAR     55  45  69 E6        30.29R
* CHESTER      N/A       59  38  46 E6         N/A
* DENTON       N/A       52  42  69 N/A        N/A
* GEYSER       N/A       49  44  83 SE8        N/A
* JUDITH GAP   N/A       60  46  60 SE3        N/A
* LOMA         N/A       59  38  46 NE8        N/A
$$

MTZ017>020-022>027-061-062-210400-
NORTHEAST MONTANA
CITY           SKY/WX    TMP DP  RH WIND       PRES   REMARKS
GLASGOW        CLEAR     55  36  49 NW7       30.20R
JORDAN         CLEAR     52  43  72 CALM      30.23R
SIDNEY         CLEAR     54  36  51 NW8       30.19R
WOLF POINT     CLEAR     52  37  57 NW8       30.19R
* BEAVER HILL  N/A       55  31  40 N/A        N/A
* CIRCLE       N/A       62  40  45 W3G8       N/A
* LINDSAY DVD  N/A       47  36  66 NW7        N/A
$$

MTZ028>042-056>058-210400-
SOUTHCENTRAL AND SOUTHEAST MONTANA
CITY           SKY/WX    TMP DP  RH WIND       PRES   REMARKS
BAKER          CLEAR     57  36  46 W9        30.23R
BILLINGS       CLEAR     64  43  47 E8        30.26R
LIVINGSTON     CLEAR     61  43  52 E8        30.26R
MILES CITY     CLEAR     61  37  41 NW6       30.23R
* LAUREL APT   CLEAR     61  41  48 N/A        N/A
* ROUNDUP APT  CLEAR     61  41  48 N/A        N/A
* ALZADA       N/A       57  37  47 NW4        N/A
* HYSHAM       N/A       59  39  48 E1         N/A
* LAME DEER    N/A       58  39  49 N4         N/A
* REED POINT   N/A       58  42  55 N/A        N/A
* ROSCOE HILL  N/A       55  35  47 S8         N/A
$$

REGIONAL REPORTS...DAKOTAS
CITY           SKY/WX    TMP DP  RH WIND       PRES   REMARKS
WILLISTON      CLEAR     52  36  55 W7        30.16R
DICKINSON      CLEAR     48  36  63 W8        30.16R
BEACH          N/A       50  34  54 NW9       30.21R
CROSBY         CLEAR     55  39  55 NW9       30.13R
TIOGA          CLEAR     55  39  55 NW12      30.16R
WATFORD CITY   CLEAR     55  36  49 W3        30.15R
BISMARCK       CLEAR     61  39  44 NW9       30.09R
GRAND FORKS    CLOUDY    54  52  93 W6        29.92R
FARGO          MOCLDY    55  50  83 N5        29.92R
BUFFALO SD     CLEAR     61  36  39 NW13      30.16R
RAPID CITY     CLEAR     54  39  57 N8        30.23R
$$

REGIONAL REPORTS...WYOMING/IDAHO/WASHINGTON
CITY           SKY/WX    TMP DP  RH WIND       PRES   REMARKS
GILLETTE       CLEAR     46  37  71 W3        30.29R
SHERIDAN       CLEAR     50  43  77 S6        30.28R
CODY           CLEAR    N/A N/A N/A N/A        N/A
YELLOWSTONE LA CLEAR     45  39  80 CALM      30.41R
SALMON         CLEAR     64  41  43 S3        30.10R
MULLAN PASS    CLEAR     61  36  39 SE7       30.27S
SAND POINT     CLEAR     55  50  83 NW3       30.08S
SPOKANE        PTCLDY    72  41  33 N8        30.06S

$$



USA.gov is the U.S. government's official web portal to all federal, state and local government web resources and services.